KHZX

Details ICAO KHZX
Name ISEDOR IVERSON
Region United States
Timezone America/Chicago (UTC-5.0)
Plans Departing 0
Arriving 0
Stats Elevation 1,228 ft / 374 m (AMSL)
Location 46.618797° -93.309811°
Runways 1
Magnetic Variation 0.028° E
Sunrise 2018-05-22 10:32:53 UTC / 2018-05-22 05:32:53 Local
Sunset 2018-05-23 01:49:49 UTC / 2018-05-22 20:49:49 Local
Advertisement - Login to hide

Runways

ID Width Length Bearing (true) Bearing (mag) Surface Threshold Offset Overrun Length
14 75 ft / 23 m 3,395 ft / 1,035 m 140.12° 140.09° Asphalt 0 ft / 0 m 0 ft / 0 m
32 75 ft / 23 m 3,395 ft / 1,035 m 320.12° 320.09° Asphalt 0 ft / 0 m 0 ft / 0 m

Map

Weather


0- 5 10 15 20 25 30 35+ Temperature / ° C

Clouds and Precipitation
Forecast for 2018-05-22 06:00 UTC. Updated 3 hours ago

Ground ~20,000 ft ~40,000 ft Winds

METAR

KHZX 220816Z AUTO 00000KT 10SM SCT017 SCT027 OVC035 11/10 A3002 RMK AO2

TAF

Not found

Frequencies

Recorded 119.57 MHz AWOS 3
Unicom 122.90 MHz CTAF
Warning: Do not use this data for real-world aviation or navigation. No guarantee of current accuracy is given.